Location: Bennemühlen
(52.5740°N, 9.7135°E)
Time: 01:13:11
(UTC+00:00)

A-11 Canister half - Pass Details

Date: 19 February 2026
Orbit: 1512 x 1687 km, 47.2° (Epoch: 8 March)

Event Time Altitude Azimuth Distance (km) Brightness Sun altitude
Rises 00:35:30 0° 277° (W) 4,911 - -47.0°
Reaches altitude 10° 00:38:46 10° 273° (W) 3,905 - -46.8°
Maximum altitude 00:48:21 55° 200° (SSW) 1,888 - -46.2°
Drops below altitude 10° 00:57:35 10° 126° (SE) 3,766 - -45.5°
Exits shadow 01:00:22 - 123° (ESE) 4,631 11.5 -45.3°
Sets 01:00:41 0° 123° (ESE) 4,726 11.6 -45.3°
